KE4BFX Weather Reports


time (UTC)temp
C
wind
direction
speed
KPH
gust
KPH
rain 1hr
cm
rain 24hr
cm
rain mn
cm
humidity
%
barometer
mb
20260906012103 26 214 1.6 4.8 0.00 3.84 3.84 87 1012.5
20260906011103 27 220 3.2 4.8 0.00 3.84 3.84 87 1012.4
20260906005104 27 224 1.6 4.8 0.00 3.84 3.84 86 1012.5
20260906004104 27 224 3.2 4.8 0.00 3.84 3.84 85 1012.5
20260906003104 28 224 0.0 4.8 0.00 3.84 3.84 85 1012.4
20260906002104 28 225 3.2 4.8 0.00 3.84 3.84 84 1012.3
20260906001103 28 223 1.6 4.8 0.00 3.84 3.84 84 1012.4
20260906000104 28 223 1.6 4.8 0.00 3.84 3.84 83 1012.4
20260905235103 29 221 1.6 4.8 0.00 3.84 3.84 83 1012.4
20260905234104 29 217 1.6 4.8 0.00 3.84 3.84 82 1012.4
20260905232104 30 222 1.6 3.2 0.00 3.84 3.84 81 1012.3
20260905231103 30 222 1.6 4.8 0.00 3.84 3.84 81 1012.3
20260905230103 30 223 0.0 0.0 0.00 3.84 3.84 81 1012.4
20260905224104 30 223 0.0 4.8 0.00 3.84 3.84 80 1012.4
20260905223104 30 221 3.2 4.8 0.00 3.84 3.84 79 1012.6
20260905221104 31 219 3.2 4.8 0.00 3.84 3.84 78 1012.5
20260905220103 31 215 1.6 8.0 0.00 3.84 3.84 76 1012.7
20260905215104 31 215 3.2 9.7 0.00 3.84 3.84 75 1012.7
20260905213104 31 211 3.2 4.8 0.00 3.84 3.84 78 1012.9
20260905212104 30 209 3.2 8.0 0.00 3.84 3.84 79 1013.1
20260905211104 30 222 3.2 8.0 0.00 3.84 3.84 78 1013.1
20260905210104 30 231 6.4 11.3 0.00 3.84 3.84 81 1013.0
20260905205104 30 280 3.2 9.7 0.00 3.84 3.84 84 1012.9
20260905203104 28 211 3.2 8.0 0.03 3.84 3.84 87 1012.8
20260905202104 27 259 3.2 9.7 0.03 3.84 3.84 88 1013.0
20260905201104 26 123 4.8 8.0 0.71 3.84 3.84 89 1013.0
20260905200104 26 96 1.6 9.7 2.97 3.84 3.84 89 1013.2
20260905195104 25 112 3.2 9.7 3.84 3.84 3.84 88 1013.4
20260905194104 25 130 3.2 12.9 3.84 3.84 3.84 87 1013.5
20260905193104 26 123 4.8 16.1 3.81 3.81 3.81 86 1013.9
20260905192104 26 54 3.2 4.8 3.81 3.81 3.81 85 1014.3
20260905191104 27 327 3.2 32.2 3.12 3.12 3.12 84 1014.6
20260905190104 30 278 11.3 19.3 0.86 0.86 0.86 81 1014.4
20260905185104 31 337 8.0 20.9 0.00 0.00 0.00 75 1014.1
20260905184104 32 347 4.8 12.9 0.00 0.00 0.00 73 1014.1
20260905183104 33 345 3.2 22.5 0.00 0.00 0.00 71 1014.1
20260905181104 33 219 4.8 8.0 0.00 0.00 0.00 71 1014.2
20260905180104 32 32 1.6 3.2 0.00 0.00 0.00 74 1014.3
20260905175104 31 23 1.6 3.2 0.00 0.00 0.00 72 1014.5
20260905174105 31 24 1.6 4.8 0.00 0.00 0.00 72 1014.6
20260905173104 31 14 3.2 8.0 0.00 0.00 0.00 73 1014.5
20260905172104 32 35 1.6 9.7 0.00 0.00 0.00 74 1014.7
20260905171104 32 336 4.8 12.9 0.00 0.00 0.00 76 1014.7
20260905170105 31 13 1.6 8.0 0.00 0.00 0.00 75 1014.7
20260905165105 31 348 4.8 12.9 0.00 0.00 0.00 77 1014.8
20260905164105 31 309 1.6 4.8 0.00 0.00 0.00 76 1014.8
20260905163104 31 301 3.2 4.8 0.00 0.00 0.00 77 1015.0
20260905162105 31 308 3.2 4.8 0.00 0.00 0.00 76 1015.0
20260905160104 31 321 1.6 3.2 0.00 0.00 0.00 78 1015.0
20260905155104 31 321 1.6 4.8 0.00 0.00 0.00 76 1015.1
20260905154105 31 321 1.6 8.0 0.00 0.00 0.00 77 1015.1
20260905152104 30 310 1.6 4.8 0.00 0.00 0.00 82 1015.0
20260905151104 30 311 3.2 11.3 0.00 0.00 0.00 80 1015.1
20260905145105 30 284 3.2 4.8 0.00 0.00 0.00 83 1015.0
20260905143105 29 251 0.0 3.2 0.00 0.00 0.00 85 1015.1
20260905140105 28 74 0.0 3.2 0.00 0.03 0.00 93 1015.0
20260905134104 27 76 1.6 3.2 0.00 0.08 0.00 94 1014.9
20260905133104 26 75 3.2 4.8 0.00 0.08 0.00 94 1015.0
20260905132105 26 71 3.2 4.8 0.00 0.08 0.00 94 1014.9
20260905131104 26 67 3.2 4.8 0.00 0.08 0.00 94 1014.9
20260905125105 25 59 3.2 4.8 0.00 0.08 0.00 94 1014.7
20260905124105 25 59 3.2 4.8 0.00 0.08 0.00 94 1014.7
20260905123105 25 32 0.0 0.0 0.00 0.08 0.00 94 1014.6
20260905122105 24 32 0.0 0.0 0.00 0.08 0.00 94 1014.6
20260905121104 23 32 0.0 0.0 0.00 0.08 0.00 94 1014.5
20260905120105 23 32 0.0 0.0 0.00 0.08 0.00 93 1014.4
20260905115105 23 32 0.0 0.0 0.00 0.08 0.00 93 1014.4
20260905114105 23 32 0.0 0.0 0.00 0.08 0.00 93 1014.4
20260905113105 23 32 0.0 0.0 0.00 0.08 0.00 93 1014.3
20260905111105 23 32 0.0 0.0 0.00 0.08 0.00 93 1014.2
20260905105105 23 32 0.0 0.0 0.00 0.08 0.00 93 1014.0
20260905103104 23 34 0.0 0.0 0.00 0.08 0.00 93 1014.1
20260905101105 23 34 0.0 0.0 0.00 0.08 0.00 93 1014.1
20260905100105 23 34 0.0 0.0 0.00 0.08 0.00 93 1014.0
20260905095105 23 34 0.0 0.0 0.00 0.08 0.00 93 1014.0
20260905094105 23 34 0.0 0.0 0.00 0.08 0.00 93 1014.0
20260905093105 24 34 0.0 0.0 0.00 0.08 0.00 93 1014.0
20260905092105 24 34 0.0 0.0 0.00 0.08 0.00 93 1013.9
20260905090105 23 34 0.0 0.0 0.00 0.08 0.00 93 1013.9
20260905085105 24 33 0.0 0.0 0.00 0.08 0.00 93 1013.9
20260905084104 24 33 0.0 0.0 0.00 0.08 0.00 93 1013.8
20260905083105 23 34 0.0 0.0 0.00 0.08 0.00 93 1013.8
20260905082105 23 32 0.0 0.0 0.00 0.10 0.00 92 1013.8
20260905081105 23 32 0.0 0.0 0.00 0.10 0.00 92 1013.7
20260905080105 23 32 0.0 0.0 0.00 0.10 0.00 92 1013.6
20260905074105 23 32 0.0 0.0 0.00 0.10 0.00 92 1013.9
20260905073105 23 32 0.0 0.0 0.00 0.10 0.00 92 1013.8
20260905071105 23 32 0.0 0.0 0.00 0.10 0.00 92 1013.8
20260905070105 23 32 0.0 0.0 0.00 0.10 0.00 92 1013.7
20260905065105 24 32 0.0 0.0 0.00 0.10 0.00 92 1013.6
20260905064105 24 32 0.0 0.0 0.00 0.10 0.00 92 1013.5
20260905063105 24 30 0.0 0.0 0.00 0.10 0.00 92 1013.5
20260905062105 23 30 0.0 0.0 0.00 0.10 0.00 92 1013.5
20260905061106 24 30 0.0 0.0 0.00 0.10 0.00 92 1013.6
20260905055106 24 30 0.0 0.0 0.00 0.10 0.00 92 1013.6
20260905052106 24 30 0.0 0.0 0.00 0.10 0.00 91 1014.0
20260905050106 24 30 0.0 0.0 0.00 0.33 0.00 91 1014.2
20260905045105 24 30 0.0 0.0 0.00 0.41 0.33 91 1014.3
20260905044105 24 30 0.0 0.0 0.00 0.48 0.33 91 1014.3
20260905043105 25 30 0.0 0.0 0.00 0.53 0.33 91 1014.4
20260905042106 25 30 0.0 0.0 0.00 0.53 0.33 91 1014.6
20260905041105 25 30 0.0 0.0 0.00 0.53 0.33 91 1014.5
20260905040105 25 30 0.0 0.0 0.00 0.53 0.33 91 1014.6
20260905035105 25 30 0.0 0.0 0.00 0.53 0.33 91 1014.8
20260905034105 25 30 0.0 0.0 0.00 0.53 0.33 91 1014.9
20260905033105 25 30 0.0 0.0 0.00 0.53 0.33 90 1014.9
20260905032105 25 30 0.0 1.6 0.00 0.53 0.33 90 1015.0
20260905030105 25 28 1.6 4.8 0.00 0.53 0.33 90 1014.9
20260905025106 25 28 0.0 3.2 0.00 0.53 0.33 90 1015.0
20260905024106 25 28 0.0 3.2 0.00 0.53 0.33 90 1015.1
20260905023106 25 28 1.6 4.8 0.00 0.53 0.33 90 1015.0
20260905022106 25 27 1.6 3.2 0.00 0.53 0.33 90 1015.0
20260905020105 25 27 1.6 4.8 0.00 0.53 0.33 89 1015.0
20260905015106 26 27 1.6 3.2 0.00 0.53 0.33 89 1014.7
20260905014105 26 27 1.6 3.2 0.00 0.53 0.33 89 1014.4
20260905013106 26 27 1.6 3.2 0.00 0.53 0.33 89 1014.3